Regional Weather Roundup
Issued by NWS

Home | Current Version | Previous Version | Text Only | Print | Product List | Glossary On
Versions: 1 2 3 4 5 6 7 8 9 10 11 12 13 14 15 16 17 18 19 20 21 22 23 24 25 26 27 28 29 30 31 32 33 34 35 36 37 38 39 40 41 42 43 44 45 46 47 48 49 50
000
ASUS44 KMEG 231110
RWRTN
TENNESSEE HOURLY STATE WEATHER ROUNDUP
NATIONAL WEATHER SERVICE MEMPHIS TN
600 AM CDT SAT AUG 23 2014

TNZ002-004-019-021-049-052-054-088>092-231200-
WEST TENNESSEE

CITY           SKY/WX    TMP DP  RH WIND       PRES   REMARKS
MEMPHIS INTL   PTCLDY    78  72  81 SW5       30.01R
NWS MEMPHIS      N/A     75 N/A N/A MISG        N/A
JACKSON        CLEAR     74  72  93 CALM      30.01R
DYERSBURG      CLEAR     77  66  69 SW5       29.99S
UNION CITY     CLEAR     73  73 100 CALM      29.98R
PARIS          CLEAR     72  70  94 CALM      30.01R
HUNTINGDON     CLEAR     72  71  96 CALM      30.00R
LEXINGTON      CLEAR     72  70  94 CALM      30.01R
SAVANNAH       CLEAR     70  70 100 CALM      30.03R
$$

TNZ008-025-027-028-033-062-065-066-231200-
NORTH MIDDLE TENNESSEE

CITY           SKY/WX    TMP DP  RH WIND       PRES   REMARKS
NASHVILLE      MOCLDY    77  73  87 CALM      30.02R
DICKSON        MOCLDY    73  72  94 NE5       30.04R
PORTLAND       MOCLDY    73  70  88 W5        30.01S
CLARKSVILLE    LGT RAIN  73  71  93 CALM      30.01S
SMYRNA         PTCLDY    74  73  96 N3        30.03R
MURFREESBORO   MOCLDY    74  71  90 CALM      30.01R
COOKEVILLE     PTCLDY    73  73 100 CALM      30.03S
LIVINGSTON     PTCLDY    72  71  96 SW5       30.04R
GALLATIN       MOCLDY    75  74  97 CALM      30.02R
CROSSVILLE     RAIN      73  69  87 NW8       30.09R FOG
$$

TNZ061-075-076-078-094-096-097-231200-
SOUTH MIDDLE TENNESSEE

CITY           SKY/WX    TMP DP  RH WIND       PRES   REMARKS
LEWISBURG      MOCLDY    71  69  93 CALM      30.02R
FAYETTEVILLE   CLEAR     70  68  94 CALM      30.04S
TULLAHOMA      CLEAR     70  66  88 CALM      30.06R
WINCHESTER     CLEAR     70  70 100 CALM      30.05R
MCMINNVILLE    MOCLDY    72  72 100 CALM      30.04S
COLUMBIA       CLEAR     73  73 100 CALM      30.02R
SHELBYVILLE    CLEAR     72  72 100 CALM      30.04S
$$

TNZ017-018-042-046-047-231200-
NORTHEAST TENNESSEE

CITY           SKY/WX    TMP DP  RH WIND       PRES   REMARKS
TRI CITIES     CLOUDY    70  68  93 CALM      30.04S
ELIZABETHTON   DRIZZLE   66  66 100 VRB3      30.04S
$$

TNZ012-013-036-069-073-074-231200-
CENTRAL EAST TENNESSEE

CITY           SKY/WX    TMP DP  RH WIND       PRES   REMARKS
KNOXVILLE      MOCLDY    73  70  90 W3        30.01R
OAK RIDGE      CLEAR     73  70  90 CALM      30.03R
GATLINBURG     MOSUNNY   72  68  88 CALM      30.02R
MORRISTOWN     SUNNY     70  70 100 CALM      30.04R
$$

TNZ083-085-099-231200-
SOUTHEAST TENNESSEE

CITY           SKY/WX    TMP DP  RH WIND       PRES   REMARKS
CHATTANOOGA    PTCLDY    74  71  91 CALM      30.03R
$$

SKY/WX REPORTED AS FAIR MEANS FEW OR NO CLOUDS BELOW
12 THOUSAND FEET.



USA.gov is the U.S. government's official web portal to all federal, state and local government web resources and services.